Milford, UT

2:30 AM MDT on September 27, 2016 (GMT -0600)
Milford Municipal

Weather History for KMLF - February, 2013

Change the Weather History Date:

Tuesday, February 26, 2013

  Actual Average Record
Temperature  
Mean Temperature 24 °F -  
Max Temperature 33 °F 43 °F 66 °F (2016)
Min Temperature 14 °F 21 °F 14 °F (2013)
Degree Days  
Heating Degree Days 42    
Moisture  
Dew Point 18 °F    
Average Humidity 81    
Maximum Humidity 100    
Minimum Humidity 43    
Precipitation  
Precipitation 0.08 in - - ()
Sea Level Pressure  
Sea Level Pressure 30.15 in    
Wind  
Wind Speed 3 mph (North)    
Max Wind Speed 16 mph    
Max Gust Speed 21 mph    
Visibility 5 miles    
Events Fog , Snow    
Averages and records for this station are not official NWS values.
T = Trace of Precipitation, MM = Missing Value Source: NWS Daily Summary

Daily Weather History Graph

Daily Weather History Graph

Search for Another Location

Airport or City:

Trip Planner

Search our weather history database for the weather conditions in past years. The results will help you decide how hot, cold, wet, or windy it might be!

Date:

Astronomy

Feb. 26, 2013 Rise Set
Actual Time 7:07 AM MST 6:22 PM MST
Civil Twilight 6:41 AM MST 6:49 PM MST
Nautical Twilight 6:10 AM MST 7:19 PM MST
Astronomical Twilight 5:39 AM MST 7:50 PM MST
Moon 7:41 PM MST (2/26) 7:13 AM MST (2/26)
Length of Visible Light 12h 07m
Length of Day
11h 14m
Full, 99% of the Moon is Illuminated
Feb 26
Full
Mar 4
Last Quarter
Mar 11
New
Mar 19
First Quarter
Mar 27
Full

Hourly Weather History & Observations

Time (MST) Temp. Windchill Dew Point Humidity Pressure Visibility Wind Dir Wind Speed Gust Speed Precip Events Conditions
12:52 AM 21.0 °F - 19.9 °F 96% 30.10 in 10.0 mi Calm Calm - N/A   Clear
1:52 AM 21.0 °F - 18.0 °F 88% 30.09 in 10.0 mi Calm Calm - N/A   Partly Cloudy
2:16 AM 15.8 °F - 14.0 °F 93% 30.05 in 1.8 mi Calm Calm - N/A   Partly Cloudy
2:18 AM 15.8 °F - 12.2 °F 86% 30.05 in 1.2 mi Calm Calm - N/A   Scattered Clouds
2:25 AM 15.8 °F - 12.2 °F 86% 30.05 in 1.5 mi Calm Calm - N/A   Mostly Cloudy
2:27 AM 17.6 °F - 12.2 °F 79% 30.05 in 2.0 mi Calm Calm - N/A   Mostly Cloudy
2:32 AM 15.8 °F 10.2 °F 12.2 °F 86% 30.05 in 7.0 mi WSW 3.5 mph - N/A   Mostly Cloudy
2:37 AM 17.6 °F 10.7 °F 14.0 °F 86% 30.05 in 10.0 mi WSW 4.6 mph - N/A   Mostly Cloudy
2:52 AM 18.0 °F 12.7 °F 16.0 °F 92% 30.08 in 10.0 mi SSW 3.5 mph - N/A   Mostly Cloudy
3:03 AM 17.6 °F - 15.8 °F 93% 30.04 in 10.0 mi Calm Calm - N/A   Mostly Cloudy
3:15 AM 19.4 °F - 15.8 °F 86% 30.04 in 10.0 mi Calm Calm - N/A   Mostly Cloudy
3:31 AM 19.4 °F - 17.6 °F 93% 30.04 in 10.0 mi Calm Calm - N/A   Overcast
3:43 AM 21.2 °F - 17.6 °F 86% 30.04 in 10.0 mi Calm Calm - N/A   Overcast
3:52 AM 21.0 °F - 19.0 °F 92% 30.07 in 4.0 mi Calm Calm - 0.00 in Snow Light Snow
4:09 AM 21.2 °F - 19.4 °F 93% 30.04 in 2.0 mi Calm Calm - 0.00 in Snow Light Snow
4:12 AM 21.2 °F - 19.4 °F 93% 30.04 in 1.8 mi Calm Calm - 0.00 in Snow Light Snow
4:26 AM 23.0 °F 18.4 °F 19.4 °F 86% 30.05 in 1.2 mi NW 3.5 mph - 0.00 in Snow Light Snow
4:30 AM 23.0 °F 18.4 °F 21.2 °F 93% 30.05 in 0.8 mi NNW 3.5 mph - 0.01 in Snow Light Snow
4:44 AM 24.8 °F - 21.2 °F 86% 30.04 in 0.5 mi Calm Calm - 0.02 in Fog , Snow Snow
4:52 AM 24.1 °F - 21.9 °F 91% 30.06 in 0.5 mi Calm Calm - 0.03 in Fog , Snow Snow
5:08 AM 24.8 °F 17.9 °F 21.2 °F 86% 30.05 in 0.8 mi NW 5.8 mph - 0.01 in Snow Light Snow
5:21 AM 24.8 °F 17.9 °F 23.0 °F 93% 30.06 in 0.2 mi NNW 5.8 mph - 0.04 in Fog , Snow Heavy Snow
5:31 AM 24.8 °F 17.9 °F 23.0 °F 93% 30.06 in 1.0 mi North 5.8 mph - 0.05 in Snow Light Snow
5:46 AM 24.8 °F 19.1 °F 23.0 °F 93% 30.06 in 1.5 mi North 4.6 mph - 0.06 in Snow Light Snow
5:49 AM 24.8 °F 19.1 °F 23.0 °F 93% 30.06 in 2.0 mi North 4.6 mph - 0.06 in Snow Light Snow
5:52 AM 25.0 °F 17.1 °F 23.0 °F 92% 30.08 in 4.0 mi North 6.9 mph - 0.06 in Snow Light Snow
6:06 AM 26.6 °F 18.2 °F 23.0 °F 86% 30.07 in 1.2 mi North 8.1 mph - 0.00 in Snow Light Snow
6:13 AM 26.6 °F 16.8 °F 23.0 °F 86% 30.07 in 0.5 mi North 10.4 mph - 0.01 in Fog , Snow Snow
6:19 AM 26.6 °F 18.2 °F 23.0 °F 86% 30.07 in 0.8 mi North 8.1 mph - 0.02 in Snow Light Snow
6:23 AM 26.6 °F 19.1 °F 23.0 °F 86% 30.07 in 1.0 mi North 6.9 mph - 0.02 in Snow Light Snow
6:41 AM 26.6 °F 22.6 °F 24.8 °F 93% 30.07 in 1.2 mi North 3.5 mph - 0.03 in Snow Light Snow
6:44 AM 24.8 °F - 24.8 °F 100% 30.07 in 1.8 mi Calm Calm - 0.03 in Snow Light Snow
6:47 AM 24.8 °F - 23.0 °F 93% 30.07 in 3.0 mi Calm Calm - 0.03 in Snow Light Snow
6:52 AM 25.0 °F - 21.9 °F 88% 30.11 in 7.0 mi Calm Calm - 0.03 in Snow Light Snow
7:19 AM 23.0 °F 18.4 °F 21.2 °F 93% 30.08 in 1.0 mi NNE 3.5 mph - 0.00 in Snow Light Snow
7:24 AM 21.2 °F 16.4 °F 19.4 °F 93% 30.08 in 0.2 mi NNE 3.5 mph - 0.00 in Fog Light Freezing Fog
7:52 AM 21.0 °F - 19.0 °F 92% 30.14 in 0.5 mi Calm Calm - 0.00 in Fog Light Freezing Fog
7:58 AM 19.4 °F - 19.4 °F 100% 30.10 in 1.5 mi Calm Calm - N/A   Overcast
8:02 AM 21.2 °F - 19.4 °F 93% 30.10 in 0.8 mi Calm Calm - N/A   Overcast
8:13 AM 23.0 °F 18.4 °F 19.4 °F 86% 30.11 in 0.2 mi NNE 3.5 mph - N/A Fog Light Freezing Fog
8:19 AM 23.0 °F 18.4 °F 21.2 °F 93% 30.11 in 0.2 mi North 3.5 mph - N/A Fog Light Freezing Fog
8:44 AM 24.8 °F 20.5 °F 21.2 °F 86% 30.12 in 1.5 mi North 3.5 mph - N/A   Overcast
8:46 AM 24.8 °F 20.5 °F 21.2 °F 86% 30.12 in 2.5 mi NNE 3.5 mph - N/A   Overcast
8:52 AM 25.0 °F 20.7 °F 23.0 °F 92% 30.19 in 6.0 mi NE 3.5 mph - N/A   Overcast
9:07 AM 24.8 °F 20.5 °F 21.2 °F 86% 30.14 in 10.0 mi North 3.5 mph - N/A   Mostly Cloudy
9:52 AM 26.1 °F 18.4 °F 21.9 °F 84% 30.23 in 10.0 mi North 6.9 mph - N/A   Mostly Cloudy
10:22 AM 26.6 °F 19.1 °F 23.0 °F 86% 30.17 in 10.0 mi North 6.9 mph - 0.00 in Snow Light Snow
10:31 AM 28.4 °F 19.7 °F 23.0 °F 80% 30.17 in 9.0 mi North 9.2 mph - 0.00 in   Overcast
10:37 AM 26.6 °F 18.2 °F 23.0 °F 86% 30.17 in 10.0 mi North 8.1 mph - 0.00 in   Overcast
10:52 AM 28.0 °F 20.0 °F 23.0 °F 81% 30.24 in 10.0 mi North 8.1 mph - 0.00 in   Overcast
11:00 AM 30.2 °F 23.4 °F 24.8 °F 80% 30.17 in 10.0 mi NNE 6.9 mph - 0.00 in   Overcast
11:26 AM 28.4 °F 19.7 °F 19.4 °F 69% 30.19 in 10.0 mi North 9.2 mph - 0.00 in   Overcast
11:52 AM 30.0 °F 23.2 °F 19.0 °F 64% 30.26 in 9.0 mi North 6.9 mph - 0.00 in Snow Light Snow
12:52 PM 30.9 °F 22.2 °F 19.0 °F 61% 30.27 in 10.0 mi ENE 10.4 mph - 0.00 in   Overcast
1:52 PM 30.9 °F 23.5 °F 19.0 °F 61% 30.26 in 9.0 mi NNE 8.1 mph - 0.01 in Snow Light Snow
2:52 PM 30.9 °F 22.2 °F 18.0 °F 59% 30.27 in 3.0 mi NE 10.4 mph - 0.00 in Snow Light Snow
2:58 PM 30.2 °F 20.8 °F 19.4 °F 64% 30.18 in 1.8 mi NE 11.5 mph 18.4 mph 0.00 in Snow Light Snow
3:10 PM 30.2 °F 21.9 °F 19.4 °F 64% 30.18 in 2.5 mi North 9.2 mph - 0.01 in Snow Light Snow
3:18 PM 30.2 °F 20.8 °F 17.6 °F 60% 30.18 in 4.0 mi NNE 11.5 mph - 0.01 in Snow Light Snow
3:34 PM 32.0 °F 21.2 °F 17.6 °F 55% 30.18 in 9.0 mi NE 16.1 mph 20.7 mph 0.01 in   Overcast
3:52 PM 32.0 °F 21.2 °F 17.1 °F 54% 30.25 in 9.0 mi NE 16.1 mph 19.6 mph 0.01 in   Overcast
4:52 PM 30.9 °F 23.5 °F 17.1 °F 57% 30.26 in 10.0 mi NE 8.1 mph - 0.00 in   Overcast
5:52 PM 28.9 °F 20.4 °F 15.1 °F 56% 30.27 in 10.0 mi NE 9.2 mph - N/A   Clear
6:52 PM 21.0 °F 13.4 °F 10.9 °F 65% 30.32 in 10.0 mi NNW 5.8 mph - N/A   Clear
7:23 PM 19.4 °F 9.5 °F 10.4 °F 68% 30.22 in 0.2 mi North 8.1 mph - N/A   Haze
7:32 PM 19.4 °F 8.6 °F 8.6 °F 63% 30.23 in 2.5 mi North 9.2 mph - N/A   Haze
7:37 PM 19.4 °F 8.6 °F 8.6 °F 63% 30.23 in 10.0 mi North 9.2 mph - N/A   Clear
7:52 PM 18.0 °F 6.9 °F 9.0 °F 68% 30.36 in 10.0 mi NNW 9.2 mph - N/A   Clear
8:52 PM 18.0 °F 6.1 °F 10.0 °F 71% 30.37 in 10.0 mi NNW 10.4 mph - N/A   Clear
9:52 PM 19.0 °F 7.5 °F 10.0 °F 68% 30.38 in 10.0 mi NNW 10.4 mph - N/A   Clear
10:52 PM 14.0 °F 6.5 °F 8.1 °F 77% 30.41 in 10.0 mi North 4.6 mph - N/A   Clear
11:52 PM 15.1 °F 9.4 °F 9.0 °F 77% 30.40 in 10.0 mi ENE 3.5 mph - N/A   Clear